| time (UTC) | temp F | wind direction | speed knots | gust knots | rain 1hr in | rain 24hr in | rain mn in | humidity % | barometer mb |
| 20260503050213 | 43 | 220 | 0.0 | 0.0 | 0.00 | 0.00 | 0.00 | 58 | 1009.3 |
| 20260503045154 | 43 | 219 | 0.0 | 0.0 | 0.00 | 0.00 | 0.00 | 58 | 1009.3 |
| 20260503044136 | 43 | 219 | 0.0 | 0.0 | 0.00 | 0.00 | 0.00 | 59 | 1009.4 |
| 20260503043159 | 43 | 219 | 0.0 | 0.0 | 0.00 | 0.00 | 0.00 | 60 | 1009.5 |
| 20260503042159 | 43 | 219 | 0.0 | 0.0 | 0.00 | 0.00 | 0.00 | 60 | 1009.6 |
| 20260503041153 | 43 | 219 | 0.0 | 0.0 | 0.00 | 0.00 | 0.00 | 59 | 1009.7 |
| 20260503040133 | 44 | 219 | 0.0 | 0.0 | 0.00 | 0.00 | 0.00 | 59 | 1009.8 |
| 20260503033959 | 44 | 219 | 0.0 | 0.0 | 0.00 | 0.00 | 0.00 | 59 | 1010.0 |
| 20260503033011 | 44 | 223 | 0.0 | 0.0 | 0.00 | 0.00 | 0.00 | 59 | 1010.0 |
| 20260503032003 | 44 | 223 | 0.0 | 0.9 | 0.00 | 0.00 | 0.00 | 58 | 1010.2 |
| 20260503030929 | 45 | 223 | 0.0 | 0.9 | 0.00 | 0.00 | 0.00 | 57 | 1010.2 |
| 20260503025940 | 45 | 223 | 0.0 | 2.6 | 0.00 | 0.00 | 0.00 | 56 | 1010.4 |
| 20260503024918 | 46 | 223 | 0.0 | 2.6 | 0.00 | 0.00 | 0.00 | 55 | 1010.4 |
| 20260503023912 | 46 | 223 | 0.0 | 2.6 | 0.00 | 0.00 | 0.00 | 54 | 1010.3 |
| 20260503022854 | 47 | 223 | 0.0 | 2.6 | 0.00 | 0.00 | 0.00 | 55 | 1010.4 |
| 20260503021903 | 47 | 223 | 0.0 | 1.7 | 0.00 | 0.00 | 0.00 | 53 | 1010.4 |
| 20260503020921 | 47 | 223 | 0.0 | 0.9 | 0.00 | 0.00 | 0.00 | 54 | 1010.4 |
| 20260503015916 | 48 | 223 | 0.0 | 0.9 | 0.00 | 0.00 | 0.00 | 54 | 1010.4 |
| 20260503014902 | 48 | 223 | 0.0 | 0.9 | 0.00 | 0.00 | 0.00 | 54 | 1010.3 |
| 20260503013852 | 49 | 223 | 0.0 | 0.9 | 0.00 | 0.00 | 0.00 | 52 | 1010.4 |
| 20260503012915 | 50 | 223 | 0.0 | 0.9 | 0.00 | 0.00 | 0.00 | 53 | 1010.3 |
| 20260503011904 | 51 | 223 | 0.0 | 2.6 | 0.00 | 0.00 | 0.00 | 51 | 1010.3 |
| 20260503010924 | 51 | 223 | 0.0 | 0.9 | 0.00 | 0.00 | 0.00 | 49 | 1010.2 |
| 20260503005940 | 52 | 223 | 0.0 | 2.6 | 0.00 | 0.00 | 0.00 | 46 | 1010.3 |
| 20260503004945 | 54 | 224 | 0.0 | 0.9 | 0.00 | 0.00 | 0.00 | 43 | 1010.3 |
| 20260503003935 | 56 | 224 | 0.0 | 0.9 | 0.00 | 0.00 | 0.00 | 37 | 1010.4 |
| 20260503002956 | 57 | 224 | 0.0 | 1.7 | 0.00 | 0.00 | 0.00 | 34 | 1010.5 |
| 20260503002003 | 58 | 224 | 0.0 | 3.5 | 0.00 | 0.00 | 0.00 | 30 | 1010.5 |
| 20260503000938 | 59 | 223 | 0.9 | 4.3 | 0.00 | 0.00 | 0.00 | 26 | 1010.5 |
| 20260502235951 | 59 | 317 | 0.9 | 4.3 | 0.00 | 0.00 | 0.00 | 26 | 1010.6 |
| 20260502235000 | 61 | 258 | 0.9 | 5.2 | 0.00 | 0.00 | 0.00 | 24 | 1010.6 |
| 20260502233937 | 62 | 341 | 1.7 | 8.7 | 0.00 | 0.00 | 0.00 | 21 | 1010.7 |
| 20260502232946 | 62 | 5 | 3.5 | 8.7 | 0.00 | 0.00 | 0.00 | 19 | 1010.9 |
| 20260502231923 | 62 | 284 | 2.6 | 8.7 | 0.00 | 0.00 | 0.00 | 19 | 1010.9 |
| 20260502230921 | 62 | 349 | 1.7 | 8.7 | 0.00 | 0.00 | 0.00 | 19 | 1011.0 |
| 20260502225905 | 62 | 0 | 2.6 | 8.7 | 0.00 | 0.00 | 0.00 | 18 | 1011.2 |
| 20260502224850 | 62 | 251 | 3.5 | 8.7 | 0.00 | 0.00 | 0.00 | 19 | 1011.3 |
| 20260502223910 | 62 | 321 | 3.5 | 9.6 | 0.00 | 0.00 | 0.00 | 18 | 1011.4 |
| 20260502222847 | 63 | 311 | 2.6 | 9.6 | 0.00 | 0.00 | 0.00 | 18 | 1011.3 |
| 20260502221824 | 63 | 333 | 3.5 | 8.7 | 0.00 | 0.00 | 0.00 | 16 | 1011.4 |
| 20260502220835 | 63 | 283 | 2.6 | 12.2 | 0.00 | 0.00 | 0.00 | 18 | 1011.5 |
| 20260502215806 | 62 | 34 | 3.5 | 12.2 | 0.00 | 0.00 | 0.00 | 18 | 1011.6 |
| 20260502214800 | 62 | 284 | 3.5 | 9.6 | 0.00 | 0.00 | 0.00 | 19 | 1011.8 |
| 20260502213815 | 62 | 273 | 2.6 | 7.8 | 0.00 | 0.00 | 0.00 | 18 | 1011.8 |
| 20260502212831 | 62 | 271 | 3.5 | 7.8 | 0.00 | 0.00 | 0.00 | 20 | 1011.9 |
| 20260502210710 | 62 | 334 | 4.3 | 11.3 | 0.00 | 0.00 | 0.00 | 19 | 1012.1 |
| 20260502205706 | 62 | 271 | 3.5 | 10.4 | 0.00 | 0.00 | 0.00 | 19 | 1012.1 |
| 20260502202446 | 60 | 251 | 2.6 | 8.7 | 0.00 | 0.00 | 0.00 | 21 | 1012.5 |
| 20260502201433 | 60 | 229 | 4.3 | 11.3 | 0.00 | 0.00 | 0.00 | 20 | 1012.7 |
| 20260502200411 | 60 | 0 | 2.6 | 10.4 | 0.00 | 0.00 | 0.00 | 22 | 1013.0 |
| 20260502195346 | 59 | 321 | 2.6 | 6.1 | 0.00 | 0.00 | 0.00 | 21 | 1013.1 |
| 20260502194333 | 60 | 178 | 2.6 | 8.7 | 0.00 | 0.00 | 0.00 | 19 | 1013.5 |
| 20260502193340 | 60 | 37 | 2.6 | 14.8 | 0.00 | 0.00 | 0.00 | 20 | 1013.6 |
| 20260502192344 | 59 | 273 | 3.5 | 14.8 | 0.00 | 0.00 | 0.00 | 21 | 1013.7 |
| 20260502190158 | 59 | 332 | 3.5 | 13.0 | 0.00 | 0.00 | 0.00 | 24 | 1014.0 |
| 20260502185208 | 59 | 331 | 3.5 | 11.3 | 0.00 | 0.00 | 0.00 | 22 | 1014.0 |
| 20260502184156 | 58 | 16 | 3.5 | 11.3 | 0.00 | 0.00 | 0.00 | 23 | 1014.3 |
| 20260502183150 | 59 | 315 | 2.6 | 8.7 | 0.00 | 0.00 | 0.00 | 23 | 1014.2 |
| 20260502182211 | 58 | 234 | 2.6 | 10.4 | 0.00 | 0.00 | 0.00 | 23 | 1014.3 |
| 20260502181144 | 58 | 344 | 2.6 | 10.4 | 0.00 | 0.00 | 0.00 | 23 | 1014.5 |
| 20260502180117 | 59 | 321 | 3.5 | 11.3 | 0.00 | 0.00 | 0.00 | 21 | 1014.5 |
| 20260502162925 | 57 | 290 | 2.6 | 10.4 | 0.00 | 0.00 | 0.00 | 22 | 1015.5 |
| 20260502161939 | 56 | 320 | 4.3 | 10.4 | 0.00 | 0.00 | 0.00 | 21 | 1015.6 |
| 20260502160921 | 56 | 296 | 2.6 | 7.8 | 0.00 | 0.00 | 0.00 | 27 | 1015.9 |
| 20260502151457 | 53 | 5 | 2.6 | 7.8 | 0.00 | 0.00 | 0.00 | 33 | 1016.4 |
| 20260502140124 | 47 | 339 | 1.7 | 6.1 | 0.00 | 0.00 | 0.00 | 46 | 1016.8 |
| 20260502122754 | 34 | 109 | 0.0 | 0.0 | 0.00 | 0.00 | 0.00 | 47 | 1017.1 |
| 20260502121801 | 33 | 109 | 0.0 | 0.0 | 0.00 | 0.00 | 0.00 | 47 | 1017.1 |
| 20260502120741 | 33 | 109 | 0.0 | 0.0 | 0.00 | 0.00 | 0.00 | 48 | 1017.0 |
| 20260502115741 | 32 | 109 | 0.0 | 0.0 | 0.00 | 0.00 | 0.00 | 48 | 1017.0 |
| 20260502114731 | 32 | 109 | 0.0 | 0.9 | 0.00 | 0.00 | 0.00 | 48 | 1016.9 |
| 20260502113705 | 31 | 109 | 0.0 | 0.0 | 0.00 | 0.00 | 0.00 | 48 | 1016.8 |
| 20260502110508 | 30 | 109 | 0.0 | 3.5 | 0.00 | 0.00 | 0.00 | 49 | 1016.6 |
| 20260502105451 | 30 | 109 | 0.9 | 3.5 | 0.00 | 0.00 | 0.00 | 49 | 1016.6 |
| 20260502103322 | 30 | 104 | 0.0 | 0.9 | 0.00 | 0.00 | 0.00 | 50 | 1016.6 |
| 20260502102330 | 30 | 104 | 0.0 | 0.0 | 0.00 | 0.00 | 0.00 | 50 | 1016.6 |
| 20260502101345 | 30 | 104 | 0.0 | 0.9 | 0.00 | 0.00 | 0.00 | 51 | 1016.5 |
| 20260502100343 | 30 | 104 | 0.0 | 0.9 | 0.00 | 0.00 | 0.00 | 51 | 1016.5 |
| 20260502091024 | 30 | 104 | 0.0 | 0.0 | 0.00 | 0.00 | 0.00 | 55 | 1016.3 |
| 20260502071500 | 32 | 104 | 0.0 | 0.9 | 0.00 | 0.00 | 0.00 | 60 | 1016.5 |
| 20260502070507 | 32 | 104 | 0.0 | 0.0 | 0.00 | 0.00 | 0.00 | 60 | 1016.5 |
| 20260502063235 | 32 | 104 | 0.0 | 0.0 | 0.00 | 0.00 | 0.00 | 60 | 1016.6 |
| 20260502062254 | 32 | 104 | 0.0 | 0.9 | 0.00 | 0.00 | 0.00 | 61 | 1016.5 |
| 20260502060129 | 33 | 104 | 0.0 | 0.0 | 0.00 | 0.00 | 0.00 | 62 | 1016.6 |
| 20260502053953 | 34 | 104 | 0.0 | 1.7 | 0.00 | 0.00 | 0.00 | 62 | 1016.4 |
| 20260502053003 | 34 | 104 | 0.0 | 0.9 | 0.00 | 0.00 | 0.00 | 62 | 1016.4 |
| 20260502052004 | 34 | 104 | 0.0 | 1.7 | 0.00 | 0.00 | 0.00 | 61 | 1016.5 |